Binghamton, NY

9:32 AM EST on February 25, 2017 (GMT -0500)
Binghamton Regional-Link

Weather History for KBGM - September, 2013

Change the Weather History Date:

Tuesday, September 3, 2013

  Actual Average Record
Temperature  
Mean Temperature 62 °F 64 °F  
Max Temperature 66 °F 73 °F 96 °F (1953)
Min Temperature 57 °F 55 °F 38 °F (1994)
Degree Days  
Heating Degree Days 3 3  
Month to date heating degree days 3 9  
Since 1 July heating degree days 54 72  
Cooling Degree Days 0 2  
Month to date cooling degree days 17 6  
Year to date cooling degree days 444 354  
Growing Degree Days 12 (Base 50)    
Moisture  
Dew Point 56 °F    
Average Humidity 79    
Maximum Humidity 90    
Minimum Humidity 67    
Precipitation  
Precipitation T in 0.11 in 1.19 in (1974)
Month to date precipitation 0.76 0.34  
Year to date precipitation 31.05 26.55  
Snow  
Snow 0.00 in 0.00 in 0.00 in (2002)
Month to date snowfall 0.0 0.0  
Since 1 July snowfall 0.0 0.0  
Since 1 September snowfall 0.0 0.0  
Snow Depth 0.00 in    
Sea Level Pressure  
Sea Level Pressure 29.85 in    
Wind  
Wind Speed 7 mph (NW)    
Max Wind Speed 15 mph    
Max Gust Speed 20 mph    
Visibility 10 miles    
Events Rain    
T = Trace of Precipitation, MM = Missing Value Source: NWS Daily Summary

Daily Weather History Graph

Daily Weather History Graph

Search for Another Location

Airport or City:

Trip Planner

Search our weather history database for the weather conditions in past years. The results will help you decide how hot, cold, wet, or windy it might be!

Date:

Astronomy

Sep. 03, 2013 Rise Set
Actual Time 6:31 AM EDT 7:33 PM EDT
Civil Twilight 6:02 AM EDT 8:02 PM EDT
Nautical Twilight 5:28 AM EDT 8:36 PM EDT
Astronomical Twilight 4:52 AM EDT 9:12 PM EDT
Moon 4:42 AM EDT (9/3) 6:20 PM EDT (9/3)
Length of Visible Light 13h 59m
Length of Day
13h 02m
Waning Crescent, 3% of the Moon is Illuminated
Sep 3
Waning Crescent
Sep 5
New
Sep 12
First Quarter
Sep 19
Full
Sep 26
Last Quarter

Hourly Weather History & Observations

Time (EDT) Temp. Dew Point Humidity Pressure Visibility Wind Dir Wind Speed Gust Speed Precip Events Conditions
12:06 AM 66.2 °F 62.6 °F 88% 29.81 in 9.0 mi North 11.5 mph - 0.00 in   Overcast
12:20 AM 66.2 °F 62.6 °F 88% 29.81 in 9.0 mi NNE 5.8 mph - 0.00 in   Overcast
12:51 AM 64.4 °F 60.8 °F 88% 29.81 in 10.0 mi North 8.1 mph - 0.03 in Rain Light Rain
12:53 AM 64.9 °F 61.0 °F 87% 29.79 in 10.0 mi NNW 8.1 mph - 0.03 in Rain Light Rain
1:16 AM 64.4 °F 60.8 °F 88% 29.81 in 10.0 mi North 6.9 mph - 0.00 in   Overcast
1:33 AM 64.4 °F 60.8 °F 88% 29.82 in 10.0 mi North 4.6 mph - 0.00 in   Overcast
1:53 AM 64.0 °F 60.1 °F 87% 29.78 in 10.0 mi North 5.8 mph - 0.00 in   Overcast
2:53 AM 63.0 °F 59.0 °F 87% 29.78 in 10.0 mi NNW 4.6 mph - N/A   Overcast
3:06 AM 62.6 °F 59.0 °F 88% 29.81 in 10.0 mi NNW 4.6 mph - N/A   Overcast
3:53 AM 62.1 °F 59.0 °F 90% 29.78 in 10.0 mi NW 6.9 mph - N/A   Overcast
4:08 AM 62.6 °F 57.2 °F 82% 29.81 in 10.0 mi NW 6.9 mph - N/A   Overcast
4:31 AM 62.6 °F 55.4 °F 77% 29.82 in 10.0 mi NW 4.6 mph - N/A   Overcast
4:53 AM 61.0 °F 55.9 °F 83% 29.80 in 10.0 mi NW 5.8 mph - N/A   Overcast
5:53 AM 60.1 °F 55.0 °F 83% 29.81 in 10.0 mi WNW 6.9 mph - N/A   Overcast
6:53 AM 59.0 °F 54.0 °F 83% 29.83 in 10.0 mi West 5.8 mph - N/A   Mostly Cloudy
7:53 AM 61.0 °F 55.0 °F 81% 29.84 in 10.0 mi West 4.6 mph - N/A   Clear
8:53 AM 63.0 °F 55.0 °F 75% 29.84 in 10.0 mi WNW 8.1 mph - N/A   Clear
9:33 AM 62.6 °F 53.6 °F 72% 29.87 in 10.0 mi WNW 11.5 mph - N/A   Overcast
9:41 AM 62.6 °F 53.6 °F 72% 29.87 in 10.0 mi West 9.2 mph - N/A   Overcast
9:53 AM 63.0 °F 53.1 °F 70% 29.85 in 10.0 mi WNW 8.1 mph - N/A   Overcast
10:53 AM 64.0 °F 53.1 °F 67% 29.86 in 10.0 mi West 9.2 mph - N/A   Overcast
11:53 AM 63.0 °F 53.1 °F 70% 29.86 in 10.0 mi West 10.4 mph - N/A   Overcast
12:29 PM 62.6 °F 53.6 °F 72% 29.88 in 10.0 mi NW 6.9 mph - 0.00 in   Overcast
12:44 PM 62.6 °F 55.4 °F 77% 29.87 in 10.0 mi WNW 5.8 mph - 0.00 in   Overcast
12:53 PM 64.0 °F 53.1 °F 67% 29.85 in 10.0 mi NW 8.1 mph - 0.00 in   Overcast
1:25 PM 62.6 °F 53.6 °F 72% 29.88 in 10.0 mi West 12.7 mph 17.3 mph N/A   Overcast
1:41 PM 62.6 °F 55.4 °F 77% 29.88 in 10.0 mi West 6.9 mph - 0.00 in   Overcast
1:53 PM 64.0 °F 55.0 °F 73% 29.86 in 10.0 mi WSW 6.9 mph - 0.00 in   Overcast
2:53 PM 64.0 °F 54.0 °F 70% 29.85 in 10.0 mi WNW 9.2 mph - 0.00 in   Overcast
3:53 PM 63.0 °F 55.0 °F 75% 29.86 in 10.0 mi West 8.1 mph - 0.00 in   Overcast
4:53 PM 63.0 °F 54.0 °F 72% 29.87 in 10.0 mi NNW 6.9 mph - N/A   Overcast
5:53 PM 63.0 °F 54.0 °F 72% 29.88 in 10.0 mi NW 5.8 mph - N/A   Overcast
6:53 PM 62.1 °F 55.0 °F 78% 29.89 in 10.0 mi WNW 3.5 mph - N/A   Overcast
7:53 PM 62.1 °F 54.0 °F 75% 29.90 in 10.0 mi NW 4.6 mph - N/A   Overcast
8:53 PM 61.0 °F 55.0 °F 81% 29.93 in 10.0 mi West 4.6 mph - N/A   Overcast
9:53 PM 59.0 °F 54.0 °F 83% 29.93 in 10.0 mi West 6.9 mph - N/A   Scattered Clouds
10:53 PM 57.9 °F 54.0 °F 87% 29.93 in 10.0 mi West 5.8 mph - N/A   Scattered Clouds
11:53 PM 57.9 °F 54.0 °F 87% 29.94 in 10.0 mi West 8.1 mph - N/A   Overcast